ST-2

Last updated on Sat Jul 05 2025 00:02:45 GMT+0000 (Coordinated Universal Time)

1 37606U 11022B 25185.57836686 -.00000198 00000+0 00000+0 0 9995 2 37606 0.0158 77.2484 0001740 39.0911 102.7083 1.00272171 51799
UTC large
Height (km)
Speed (km/s)
/
Latitude / Longitude
Inclination (degrees)
Orbital Period (minutes)
Azimuth
Elevation
Range (km)
Doppler Factor

Next 0 passes for location: London (51.5072 / 0.1276)

Sorry there are no passes over London.